FW8327 Weather Reports


Display with metric or nautical units.
time (UTC)temp
F
wind
direction
speed
MPH
gust
MPH
rain 1hr
in
rain 24hr
in
rain mn
in
humidity
%
barometer
mb
20260906181208 76 330 1.0 2.0 0.00 0.00 0.00 60 1016.1
20260906180707 76 38 2.0 2.0 0.00 0.00 0.00 57 1016.2
20260906180202 76 54 1.0 1.0 0.00 0.00 0.00 54 1016.2
20260906175700 76 64 2.0 3.0 0.00 0.00 0.00 57 1016.4
20260906175155 76 154 0.0 0.0 0.00 0.00 0.00 60 1016.2
20260906174654 76 108 0.0 0.0 0.00 0.00 0.00 61 1016.5
20260906174149 76 19 2.0 3.0 0.00 0.00 0.00 59 1016.3
20260906173644 76 11 2.0 2.0 0.00 0.00 0.00 60 1016.5
20260906173140 76 48 1.0 1.0 0.00 0.00 0.00 62 1016.6
20260906172639 76 6 1.0 3.0 0.00 0.00 0.00 65 1016.5
20260906172135 76 62 2.0 2.0 0.00 0.00 0.00 62 1016.7
20260906171634 76 51 1.0 2.0 0.00 0.00 0.00 57 1016.7
20260906171130 76 130 0.0 0.0 0.00 0.00 0.00 62 1016.6
20260906170626 76 39 0.0 1.0 0.00 0.00 0.00 61 1017.0
20260906170125 75 63 0.0 1.0 0.00 0.00 0.00 58 1016.8
20260906165621 75 35 2.0 3.0 0.00 0.00 0.00 62 1017.1
20260906165117 75 37 1.0 2.0 0.00 0.00 0.00 66 1016.9
20260906164616 75 8 1.0 1.0 0.00 0.00 0.00 66 1016.9
20260906164111 74 36 2.0 3.0 0.00 0.00 0.00 64 1017.1
20260906163607 74 32 3.0 3.0 0.00 0.00 0.00 66 1017.1
20260906163103 75 20 2.0 3.0 0.00 0.00 0.00 71 1016.8
20260906162600 75 21 0.0 1.0 0.00 0.00 0.00 73 1016.8
20260906162055 75 23 2.0 3.0 0.00 0.00 0.00 74 1017.0
20260906161550 75 44 1.0 1.0 0.00 0.00 0.00 70 1016.9
20260906161049 76 130 1.0 2.0 0.00 0.00 0.00 70 1017.0
20260906160548 75 32 1.0 1.0 0.00 0.00 0.00 70 1017.0
20260906160047 75 14 1.0 2.0 0.00 0.00 0.00 73 1016.9
20260906155544 75 135 0.0 0.0 0.00 0.00 0.00 74 1017.0
20260906155040 75 130 0.0 0.0 0.00 0.00 0.00 72 1017.1
20260906154535 74 139 0.0 0.0 0.00 0.00 0.00 72 1016.8
20260906154033 75 111 0.0 0.0 0.00 0.00 0.00 73 1016.9
20260906153532 75 26 0.0 0.0 0.00 0.00 0.00 74 1016.9
20260906153029 74 124 0.0 0.0 0.00 0.00 0.00 76 1016.9
20260906152528 73 130 0.0 0.0 0.00 0.00 0.00 80 1016.8
20260906152027 72 47 0.0 0.0 0.00 0.00 0.00 77 1016.8
20260906151523 72 22 0.0 1.0 0.00 0.00 0.00 78 1016.8
20260906151024 72 37 0.0 1.0 0.00 0.00 0.00 77 1016.6
20260906150520 71 40 1.0 2.0 0.00 0.00 0.00 78 1016.8
20260906150015 72 24 0.0 0.0 0.00 0.00 0.00 76 1016.8
20260906145513 72 59 0.0 0.0 0.00 0.00 0.00 80 1016.8
20260906145008 71 30 0.0 1.0 0.00 0.00 0.00 79 1017.0
20260906144503 71 63 0.0 0.0 0.00 0.00 0.00 81 1016.9
20260906143958 71 24 0.0 1.0 0.00 0.00 0.00 80 1017.2
20260906143453 70 99 0.0 0.0 0.00 0.00 0.00 82 1017.0
20260906142949 71 39 0.0 1.0 0.00 0.00 0.00 82 1017.0
20260906142448 70 38 0.0 0.0 0.00 0.00 0.00 83 1017.1
20260906141944 69 53 0.0 1.0 0.00 0.00 0.00 85 1017.0
20260906141443 70 41 0.0 0.0 0.00 0.00 0.00 85 1017.1
20260906140939 69 39 0.0 0.0 0.00 0.00 0.00 85 1017.0
20260906140433 70 138 0.0 0.0 0.00 0.00 0.00 86 1016.9
20260906135931 69 131 0.0 0.0 0.00 0.00 0.00 88 1016.7
20260906135430 69 147 0.0 0.0 0.00 0.00 0.00 86 1017.0
20260906134926 69 144 0.0 0.0 0.00 0.00 0.00 89 1016.8
20260906134421 68 56 0.0 0.0 0.00 0.00 0.00 88 1016.9
20260906133916 67 38 1.0 1.0 0.00 0.00 0.00 89 1017.1
20260906133412 68 37 0.0 1.0 0.00 0.00 0.00 89 1016.8
20260906132907 67 55 1.0 1.0 0.00 0.00 0.00 89 1017.1
20260906132402 67 34 0.0 2.0 0.00 0.00 0.00 90 1016.9
20260906131858 66 79 0.0 0.0 0.00 0.00 0.00 90 1016.8
20260906131353 66 39 1.0 1.0 0.00 0.00 0.00 91 1016.8
20260906130849 66 52 0.0 0.0 0.00 0.00 0.00 91 1017.0
20260906130348 66 84 0.0 0.0 0.00 0.00 0.00 91 1016.8
20260906125848 66 29 0.0 1.0 0.00 0.00 0.00 91 1016.9
20260906125345 66 149 0.0 0.0 0.00 0.00 0.00 92 1016.7
20260906124839 66 24 1.0 2.0 0.00 0.00 0.00 92 1016.8
20260906124336 66 100 0.0 0.0 0.00 0.00 0.00 92 1016.4
20260906123835 65 44 0.0 1.0 0.00 0.00 0.00 93 1016.7
20260906123330 65 42 1.0 2.0 0.00 0.00 0.00 93 1016.5
20260906122829 65 44 0.0 0.0 0.00 0.00 0.00 93 1016.5
20260906122324 65 48 0.0 0.0 0.00 0.00 0.00 94 1016.5
20260906121821 65 58 0.0 0.0 0.00 0.00 0.00 93 1016.5
20260906121317 64 45 2.0 3.0 0.00 0.00 0.00 94 1016.4
20260906120813 64 41 0.0 0.0 0.00 0.00 0.00 95 1016.3
20260906120309 64 54 0.0 1.0 0.00 0.00 0.00 95 1016.4
20260906115804 63 41 0.0 1.0 0.00 0.00 0.00 96 1016.2
20260906115254 63 67 0.0 0.0 0.00 0.00 0.00 97 1015.7
20260906114753 63 41 0.0 1.0 0.00 0.00 0.00 97 1015.9
20260906114248 63 56 0.0 0.0 0.00 0.00 0.00 98 1015.7
20260906113743 63 40 0.0 0.0 0.00 0.00 0.00 99 1015.6
20260906113243 63 54 0.0 0.0 0.00 0.00 0.00 99 1015.6
20260906112737 63 33 0.0 0.0 0.00 0.00 0.00 99 1015.6
20260906112233 63 32 0.0 0.0 0.00 0.00 0.00 99 1015.4
20260906111732 63 70 0.0 0.0 0.00 0.00 0.00 99 1015.3
20260906111227 63 125 0.0 0.0 0.00 0.00 0.00 99 1015.1
20260906110716 63 30 0.0 0.0 0.00 0.00 0.00 99 1015.1
20260906110206 64 38 0.0 0.0 0.00 0.00 0.00 99 1015.1
20260906105705 64 62 0.0 0.0 0.00 0.00 0.00 99 1015.1
20260906105202 64 50 0.0 0.0 0.00 0.00 0.00 99 1015.1
20260906104701 64 48 0.0 0.0 0.00 0.00 0.00 99 1015.3
20260906104200 64 34 0.0 0.0 0.00 0.00 0.00 99 1015.1
20260906103658 64 40 0.0 0.0 0.00 0.00 0.00 99 1015.0
20260906103154 64 44 0.0 0.0 0.00 0.00 0.00 99 1015.0
20260906102649 64 24 0.0 0.0 0.00 0.00 0.00 99 1014.9
20260906102148 64 47 0.0 0.0 0.00 0.00 0.00 99 1015.0
20260906101648 65 41 0.0 0.0 0.00 0.00 0.00 98 1014.8
20260906101143 65 31 0.0 0.0 0.00 0.00 0.00 98 1014.7
20260906100639 65 114 0.0 0.0 0.00 0.00 0.00 98 1014.7
20260906100133 65 64 0.0 0.0 0.00 0.00 0.00 97 1014.7
20260906095628 65 59 0.0 0.0 0.00 0.00 0.00 97 1014.7
20260906095124 65 45 0.0 0.0 0.00 0.00 0.00 97 1014.6
20260906094622 65 83 0.0 0.0 0.00 0.00 0.00 96 1014.5
20260906094119 65 130 0.0 0.0 0.00 0.00 0.00 96 1014.5
20260906093614 65 142 0.0 0.0 0.00 0.00 0.00 96 1014.6
20260906093109 65 30 0.0 0.0 0.00 0.00 0.00 95 1014.5
20260906092603 65 54 0.0 0.0 0.00 0.00 0.00 95 1014.4
20260906092059 65 85 0.0 0.0 0.00 0.00 0.00 95 1014.5
20260906091554 66 27 0.0 0.0 0.00 0.00 0.00 95 1014.4
20260906091051 66 115 0.0 0.0 0.00 0.00 0.00 95 1014.4
20260906090550 66 77 0.0 0.0 0.00 0.00 0.00 95 1014.5
20260906090046 66 133 0.0 0.0 0.00 0.00 0.00 95 1014.5
20260906085544 66 97 0.0 0.0 0.00 0.00 0.00 95 1014.3
20260906085044 66 55 0.0 0.0 0.00 0.00 0.00 95 1014.4
20260906084539 66 42 0.0 0.0 0.00 0.00 0.00 95 1014.5
20260906084038 66 49 0.0 0.0 0.00 0.00 0.00 95 1014.5
20260906083534 66 45 0.0 0.0 0.00 0.00 0.00 96 1014.5
20260906083034 66 149 0.0 0.0 0.00 0.00 0.00 96 1014.4
20260906082529 66 95 0.0 0.0 0.00 0.00 0.00 96 1014.3
20260906082025 66 58 0.0 0.0 0.00 0.00 0.00 97 1014.3
20260906081520 66 27 0.0 0.0 0.00 0.00 0.00 97 1014.2
20260906081016 66 75 0.0 0.0 0.00 0.00 0.00 97 1014.1
20260906080512 66 114 0.0 0.0 0.00 0.00 0.00 97 1014.2
20260906080008 66 97 0.0 0.0 0.00 0.00 0.00 97 1014.0
20260906075502 66 61 0.0 0.0 0.00 0.00 0.00 97 1014.2
20260906074956 66 32 0.0 0.0 0.00 0.00 0.00 97 1014.2
20260906074451 66 82 0.0 0.0 0.00 0.00 0.00 97 1014.2
20260906073949 66 97 0.0 0.0 0.00 0.00 0.00 97 1014.2
20260906073445 66 109 0.0 0.0 0.00 0.00 0.00 96 1014.2
20260906072941 66 117 0.0 0.0 0.00 0.00 0.00 95 1014.2
20260906072436 67 82 0.0 0.0 0.00 0.00 0.00 94 1014.3
20260906071932 67 113 0.0 0.0 0.00 0.00 0.00 93 1014.3
20260906071427 67 131 0.0 0.0 0.00 0.00 0.00 94 1014.3
20260906070923 67 112 0.0 0.0 0.00 0.00 0.00 94 1014.4
20260906070413 67 78 0.0 0.0 0.00 0.00 0.00 93 1014.4
20260906065908 67 54 0.0 0.0 0.00 0.00 0.00 94 1014.2
20260906065403 68 91 0.0 0.0 0.00 0.00 0.00 94 1014.3
20260906064859 68 57 0.0 0.0 0.00 0.00 0.00 95 1014.4
20260906064354 68 46 0.0 0.0 0.00 0.00 0.00 95 1014.4
20260906063849 68 39 0.0 0.0 0.00 0.00 0.00 96 1014.3
20260906063344 68 108 0.0 0.0 0.00 0.00 0.00 96 1014.3
20260906062839 68 111 0.0 0.0 0.00 0.00 0.00 96 1014.2
20260906062338 68 114 0.0 0.0 0.00 0.00 0.00 97 1014.2
20260906061834 68 83 0.0 0.0 0.00 0.00 0.00 97 1014.2
20260906061330 68 53 0.0 0.0 0.00 0.00 0.00 97 1014.3
20260906060824 68 48 0.0 0.0 0.00 0.00 0.00 97 1014.1
20260906060323 68 80 0.0 0.0 0.00 0.00 0.00 97 1014.1
20260906055818 68 118 0.0 0.0 0.00 0.00 0.00 97 1014.0
20260906055314 69 50 0.0 0.0 0.00 0.00 0.00 98 1014.2
20260906054809 69 44 0.0 0.0 0.00 0.00 0.00 98 1013.9
20260906054304 69 45 0.0 0.0 0.00 0.00 0.00 99 1013.7
20260906053800 69 40 0.0 0.0 0.00 0.00 0.00 99 1013.9
20260906053255 69 51 0.0 0.0 0.00 0.00 0.00 99 1013.8
20260906052750 69 31 0.0 0.0 0.00 0.00 0.00 99 1013.9
20260906052247 69 37 0.0 0.0 0.00 0.00 0.00 99 1013.7
20260906051744 70 89 0.0 0.0 0.00 0.00 0.00 99 1013.8
20260906051244 70 92 0.0 0.0 0.00 0.00 0.00 99 1013.6
20260906050738 70 139 0.0 0.0 0.00 0.00 0.00 99 1013.9
20260906050234 70 51 0.0 0.0 0.00 0.00 0.00 99 1013.8
20260906045732 70 110 0.0 0.0 0.00 0.00 0.00 99 1014.0
20260906045227 70 71 0.0 0.0 0.00 0.00 0.00 99 1013.6
20260906044723 71 41 0.0 1.0 0.00 0.00 0.00 99 1013.6
20260906044218 71 52 0.0 0.0 0.00 0.00 0.00 99 1013.5
20260906043714 71 85 0.0 0.0 0.00 0.00 0.00 99 1013.5
20260906043210 71 53 0.0 0.0 0.00 0.00 0.00 99 1013.6
20260906042709 71 32 1.0 2.0 0.00 0.00 0.00 99 1013.7
20260906042203 71 70 0.0 0.0 0.00 0.00 0.00 99 1013.6
20260906041658 71 130 0.0 0.0 0.00 0.00 0.00 99 1013.7
20260906041154 71 52 1.0 1.0 0.00 0.00 0.00 99 1013.5
20260906040649 71 87 0.0 0.0 0.00 0.00 0.00 99 1013.7
20260906040145 71 30 0.0 1.0 0.00 0.00 0.00 99 1013.7
20260906035644 72 79 1.0 2.0 0.00 0.00 0.00 99 1013.5
20260906035140 72 30 0.0 0.0 0.00 0.00 0.00 99 1013.8
20260906034635 72 84 0.0 0.0 0.00 0.00 0.00 99 1013.8
20260906034129 72 29 1.0 2.0 0.00 0.00 0.00 99 1013.7
20260906033625 72 33 0.0 0.0 0.00 0.00 0.00 99 1013.6
20260906033120 72 37 1.0 2.0 0.00 0.00 0.00 99 1013.7
20260906032617 73 37 2.0 2.0 0.00 0.00 0.00 98 1013.8
20260906032117 73 28 1.0 2.0 0.00 0.00 0.00 98 1013.7
20260906031612 73 51 0.0 0.0 0.00 0.00 0.00 98 1013.6
20260906031108 73 42 0.0 0.0 0.00 0.00 0.00 98 1013.5
20260906030606 73 85 0.0 0.0 0.00 0.00 0.00 98 1013.4
20260906030101 73 136 0.0 0.0 0.00 0.00 0.00 97 1013.2
20260906025556 73 102 0.0 0.0 0.00 0.00 0.00 97 1013.0
20260906025054 73 89 0.0 0.0 0.00 0.00 0.00 97 1013.2
20260906024549 73 130 0.0 0.0 0.00 0.00 0.00 96 1013.0
20260906024049 73 169 0.0 0.0 0.00 0.00 0.00 97 1013.0
20260906023546 74 154 0.0 0.0 0.00 0.00 0.00 97 1013.0
20260906023040 74 151 0.0 0.0 0.00 0.00 0.00 97 1012.9
20260906022536 74 98 0.0 1.0 0.00 0.00 0.00 97 1012.7
20260906022031 74 57 0.0 1.0 0.00 0.00 0.00 97 1012.8
20260906021526 75 114 0.0 1.0 0.00 0.00 0.00 98 1012.7
20260906021020 75 143 0.0 0.0 0.00 0.00 0.00 98 1012.6
20260906020520 75 36 1.0 2.0 0.00 0.00 0.00 98 1012.8
20260906020019 75 39 0.0 0.0 0.00 0.00 0.00 99 1012.6
20260906015518 75 144 0.0 0.0 0.00 0.00 0.00 99 1012.5
20260906015018 75 33 0.0 0.0 0.00 0.00 0.00 99 1012.5
20260906014513 75 89 0.0 0.0 0.00 0.00 0.00 99 1012.5
20260906014009 75 30 0.0 0.0 0.00 0.00 0.00 99 1012.3
20260906013504 75 148 0.0 0.0 0.00 0.00 0.00 98 1012.1
20260906012959 75 168 0.0 0.0 0.00 0.00 0.00 98 1012.1
20260906012454 75 61 1.0 2.0 0.00 0.00 0.00 97 1012.2
20260906011954 75 100 0.0 0.0 0.00 0.00 0.00 98 1012.1
20260906011449 75 40 0.0 1.0 0.00 0.00 0.00 99 1012.0
20260906010944 76 98 0.0 0.0 0.00 0.00 0.00 99 1011.9
20260906010439 76 141 0.0 0.0 0.00 0.00 0.00 99 1011.8
20260906005935 76 61 0.0 0.0 0.00 0.00 0.00 99 1011.2
20260906005430 76 41 0.0 0.0 0.00 0.00 0.00 99 1011.6
20260906004928 75 12 1.0 2.0 0.00 0.00 0.00 99 1011.4
20260906004423 75 191 0.0 0.0 0.00 0.00 0.00 99 1011.2
20260906003919 75 155 0.0 0.0 0.00 0.00 0.00 99 1011.4
20260906003414 75 155 0.0 0.0 0.00 0.00 0.00 99 1011.4
20260906002909 75 175 0.0 0.0 0.00 0.00 0.00 99 1011.5
20260906002409 74 175 0.0 0.0 0.00 0.00 0.00 99 1011.1
20260906001904 75 175 0.0 0.0 0.00 0.00 0.00 99 1011.2
20260906001400 75 175 0.0 0.0 0.00 0.00 0.00 99 1011.0
20260906000859 75 175 0.0 0.0 0.00 0.00 0.00 99 1011.0
20260906000356 76 176 0.0 0.0 0.00 0.00 0.00 99 1011.1
20260905235849 76 176 0.0 0.0 0.00 0.00 0.00 98 1011.3
20260905235343 77 175 0.0 0.0 0.00 0.00 0.00 98 1011.3
20260905234838 77 145 0.0 0.0 0.00 0.00 0.00 97 1011.4
20260905234334 78 145 0.0 0.0 0.00 0.00 0.00 97 1011.3
20260905233829 78 145 0.0 0.0 0.00 0.00 0.00 96 1011.2
20260905233324 78 145 0.0 0.0 0.00 0.00 0.00 96 1011.3
20260905232823 79 145 0.0 0.0 0.00 0.00 0.00 95 1011.1
20260905232319 78 145 0.0 0.0 0.00 0.00 0.00 95 1011.2
20260905231815 78 145 0.0 0.0 0.00 0.00 0.00 95 1011.2
20260905231310 77 145 0.0 0.0 0.00 0.00 0.00 95 1011.3
20260905230806 76 135 0.0 0.0 0.00 0.00 0.00 97 1011.2
20260905230304 76 123 0.0 0.0 0.00 0.00 0.00 99 1010.8
20260905225803 76 121 0.0 0.0 0.00 0.00 0.00 99 1011.1
20260905225258 75 133 0.0 0.0 0.00 0.00 0.00 99 1010.8
20260905224758 75 5 0.0 0.0 0.00 0.00 0.00 99 1010.9
20260905224254 75 350 0.0 0.0 0.00 0.00 0.00 99 1010.8
20260905223749 74 323 0.0 0.0 0.00 0.00 0.00 99 1010.6
20260905223246 73 183 0.0 0.0 0.00 0.00 0.00 99 1010.6
20260905222741 72 98 0.0 0.0 0.00 0.00 0.00 99 1010.9
20260905222240 72 301 0.0 0.0 0.00 0.00 0.00 99 1010.9
20260905221736 72 316 0.0 0.0 0.00 0.00 0.00 99 1011.2
20260905221233 72 166 0.0 0.0 0.00 0.00 0.00 99 1011.1
20260905220729 71 135 0.0 0.0 0.00 0.00 0.00 98 1010.7
20260905220225 69 354 0.0 0.0 0.00 0.00 0.00 98 1011.1
20260905215724 70 326 0.0 0.0 0.00 0.00 0.00 96 1011.0
20260905215220 72 184 1.0 2.0 0.00 0.00 0.00 97 1012.1
20260905214715 80 20 4.0 7.0 0.00 0.00 0.00 87 1011.2
20260905214211 86 47 1.0 3.0 0.00 0.00 0.00 74 1010.7
20260905213706 89 227 0.0 0.0 0.00 0.00 0.00 68 1010.5
20260905213202 90 162 0.0 0.0 0.00 0.00 0.00 72 1010.4
20260905212657 90 248 0.0 0.0 0.00 0.00 0.00 71 1009.9
20260905212156 90 280 0.0 0.0 0.00 0.00 0.00 74 1010.2
20260905211650 89 263 0.0 0.0 0.00 0.00 0.00 74 1010.6
20260905211146 89 227 0.0 0.0 0.00 0.00 0.00 75 1010.6
20260905210643 89 290 1.0 2.0 0.00 0.00 0.00 73 1010.4
20260905210137 89 243 0.0 0.0 0.00 0.00 0.00 74 1010.3
20260905205636 88 266 0.0 0.0 0.00 0.00 0.00 75 1010.5
20260905205136 89 259 1.0 1.0 0.00 0.00 0.00 75 1010.4
20260905204630 89 267 0.0 1.0 0.00 0.00 0.00 75 1010.5
20260905204125 88 290 0.0 0.0 0.00 0.00 0.00 74 1010.4
20260905203625 89 252 0.0 0.0 0.00 0.00 0.00 75 1010.4
20260905203120 88 249 0.0 0.0 0.00 0.00 0.00 77 1010.6
20260905202616 87 248 0.0 0.0 0.00 0.00 0.00 79 1010.9
20260905202111 85 221 0.0 0.0 0.00 0.00 0.00 81 1010.9
20260905201607 86 285 0.0 1.0 0.00 0.00 0.00 78 1011.0
20260905201106 88 275 0.0 1.0 0.00 0.00 0.00 76 1010.8
20260905200602 88 263 1.0 2.0 0.00 0.00 0.00 75 1010.9
20260905195555 89 288 0.0 0.0 0.00 0.00 0.00 75 1011.0
20260905195052 89 283 1.0 2.0 0.00 0.00 0.00 75 1011.1
20260905194551 88 280 1.0 2.0 0.00 0.00 0.00 73 1011.2
20260905194050 88 279 1.0 1.0 0.00 0.00 0.00 73 1011.0
20260905193545 88 270 0.0 1.0 0.00 0.00 0.00 75 1011.2
20260905193041 87 254 0.0 0.0 0.00 0.00 0.00 77 1011.2
20260905192536 87 269 0.0 0.0 0.00 0.00 0.00 74 1011.3
20260905192033 89 283 2.0 2.0 0.00 0.00 0.00 71 1011.1
20260905191530 89 260 0.0 0.0 0.00 0.00 0.00 71 1011.2
20260905191030 88 240 0.0 0.0 0.00 0.00 0.00 72 1011.3
20260905190528 88 246 0.0 0.0 0.00 0.00 0.00 75 1011.4
20260905190022 89 273 2.0 2.0 0.00 0.00 0.00 72 1011.4
20260905185522 89 282 1.0 2.0 0.00 0.00 0.00 72 1011.5
20260905185021 89 253 0.0 0.0 0.00 0.00 0.00 74 1011.5
20260905184520 88 268 2.0 2.0 0.00 0.00 0.00 71 1011.6
20260905184020 89 205 0.0 0.0 0.00 0.00 0.00 72 1011.7
20260905183519 88 261 0.0 1.0 0.00 0.00 0.00 71 1011.9
20260905183015 88 246 1.0 1.0 0.00 0.00 0.00 70 1011.7
20260905182509 89 277 1.0 2.0 0.00 0.00 0.00 70 1011.5
20260905182004 89 217 0.0 0.0 0.00 0.00 0.00 69 1011.9
20260905181459 88 202 0.0 0.0 0.00 0.00 0.00 70 1012.0